Location: ??????????
(54.4061°N, 22.6114°E)
Time: 01:14:19
(UTC+00:00)

STARLINK-38 - Pass Details

Date: 23 October 2019
Orbit: 548 x 551 km, 53.0° (Epoch: 16 November)

Event Time Altitude Azimuth Distance (km) Brightness Sun altitude
Rises 16:49:21 0° 274° (W) 2,719 9.1 -14.5°
Reaches altitude 10° 16:51:36 10° 272° (W) 1,825 7.7 -14.8°
Maximum altitude 16:55:43 69° 190° (S) 593 3.7 -15.4°
Enters shadow 16:57:47 28° 113° (ESE) 1,050 4.5 -15.7°
